Starlink 30055

decayed
NORAD ID: 55699 Int'l Des: 2023-026 Owner: SPXS Country: US Constellation: starlink
LEOCIRCULAR
Gruppe

Über Starlink 30055

Beschreibung wird geladen...

Höhenverlauf

Altitude vs Time

uPlot chart will show altitude changes over time

Zweizeiliger Elementsatz

1 55699U 23026E 24209.05469784 .14934803 91124-5 40694-2 0 9996
2 55699 42.9904 53.0465 0013378 291.6286 202.8958 16.26833846 82105
Epoch: 27. Juli 2024 • Age: 11959 hours

Aktueller Status

Position data unavailable
Startdatum 27. Feb. 2023
Alter 2.7 years
Verglühungsdatum 27. Juli 2024
Typ internet

Technische Details

Klassifizierung Payload
Masse 730.00 kg
Trockenmasse 700.00 kg
Gesamtmasse 730.00 kg
Länge 0.30 m
Durchmesser 4.10 m
Spannweite 29.00 m
Form Box + pan
Hersteller SPXS
Bus-Typ Starlink V2M
Phasenstatus Unknown Transfer Status
Besitzer/Staat SPXS/US

Große Konstellationen

Loading constellations...